Weather History for CWZL - February, 2013

Change the Weather History Date:

Friday, February 1, 2013

  Actual Average Record
Temperature  
Mean Temperature 44 °F -  
Max Temperature 47 °F - - ()
Min Temperature 42 °F - - ()
Degree Days  
Heating Degree Days 20    
Moisture  
Dew Point 43 °F    
Average Humidity 88    
Maximum Humidity 95    
Minimum Humidity 75    
Precipitation  
Precipitation 0.00 in - - ()
Sea Level Pressure  
Sea Level Pressure 30.20 in    
Wind  
Wind Speed 17 mph ()    
Max Wind Speed 30 mph    
Max Gust Speed -    
T = Trace of Precipitation, MM = Missing Value Source: Averaged Metar Reports

Daily Weather History Graph

Daily Weather History Graph

Search for Another Location

Airport or City:

Trip Planner

Search our weather history database for the weather conditions in past years. The results will help you decide how hot, cold, wet, or windy it might be!

Date:

Astronomy

Feb. 01, 2013 Rise Set
Actual Time 8:29 AM PST 5:31 PM PST
Civil Twilight 7:51 AM PST 6:09 PM PST
Nautical Twilight 7:09 AM PST 6:51 PM PST
Astronomical Twilight 6:29 AM PST 7:31 PM PST
Moon No Moon Rise 10:10 AM PST (2/1)
Length of Visible Light 10h 17m
Length of Day
9h 02m
Waning Gibbous, 69% of the Moon is Illuminated
Feb 1
Waning Gibbous
Feb 3
Last Quarter
Feb 9
New
Feb 17
First Quarter
Feb 25
Full

Hourly Weather History & Observations

Time (PST) Temp. Windchill Dew Point Humidity Pressure Visibility Wind Dir Wind Speed Gust Speed Precip Events Conditions
12:00 AM 42.1 °F 38.4 °F 40.5 °F 94% 30.20 in - WSW 5.8 mph - N/A   Unknown
1:00 AM 42.6 °F - 41.2 °F 95% 30.20 in - SSE 1.2 mph - N/A   Unknown
2:00 AM 45.1 °F 38.1 °F 41.5 °F 87% 30.19 in - South 16.1 mph - N/A   Unknown
3:00 AM 45.0 °F 37.4 °F 41.7 °F 88% 30.21 in - South 18.4 mph - N/A   Unknown
4:00 AM 45.0 °F 36.4 °F 41.0 °F 86% 30.19 in - SSE 23.0 mph - N/A   Unknown
5:00 AM 44.2 °F 35.4 °F 41.2 °F 89% 30.19 in - SSE 23.0 mph - N/A   Unknown
6:00 AM 44.4 °F 36.1 °F 41.4 °F 89% 30.21 in - South 20.7 mph - N/A   Unknown
7:00 AM 44.1 °F 35.2 °F 42.3 °F 93% 30.19 in - SSE 23.0 mph - N/A   Unknown
8:00 AM 44.4 °F 36.4 °F 42.8 °F 94% 30.19 in - SSE 19.6 mph - N/A   Unknown
9:00 AM 44.8 °F 36.4 °F 43.2 °F 94% 30.20 in - SSE 21.9 mph - N/A   Unknown
10:00 AM 45 °F - 44 °F 93% 30.20 in - SSE 24.2 mph - -  
10:00 AM 45.3 °F 36.7 °F 43.7 °F 94% 30.20 in - SSE 24.2 mph - N/A   Unknown
11:00 AM 45.5 °F 36.7 °F 44.1 °F 95% 30.21 in - SSE 25.3 mph - N/A   Unknown
12:00 PM 45.9 °F 36.8 °F 44.4 °F 95% 30.20 in - SSE 27.6 mph - N/A   Unknown
1:00 PM 46.0 °F 37.0 °F 44.8 °F 95% 30.19 in - SSE 27.6 mph - N/A   Unknown
2:00 PM 47.5 °F - 42.6 °F 83% 30.20 in - South 24.2 mph - N/A   Unknown
3:00 PM 47.5 °F - 41.7 °F 80% 30.19 in - South 26.5 mph - N/A   Unknown
4:00 PM 47 °F - 42 °F 79% 30.21 in - South 19.6 mph - -  
4:00 PM 47.1 °F - 42.4 °F 84% 30.21 in - South 19.6 mph - N/A   Unknown
5:00 PM 46.4 °F 38.5 °F 44.4 °F 93% 30.19 in - SE 21.9 mph - N/A   Unknown
6:00 PM 47.5 °F - 42.8 °F 84% 30.21 in - South 17.3 mph - N/A   Unknown
7:00 PM 46.6 °F - 43.7 °F 90% 30.19 in - SE 19.6 mph - N/A   Unknown
8:00 PM 46.9 °F - 42.6 °F 85% 30.19 in - South 20.7 mph - N/A   Unknown
9:00 PM 46.9 °F - 43.2 °F 87% 30.19 in - South 24.2 mph - N/A   Unknown
10:00 PM 47 °F - 42 °F 75% 30.18 in - South 28.8 mph - -  
10:00 PM 47.1 °F - 41.5 °F 81% 30.18 in - South 28.8 mph - N/A   Unknown
11:00 PM 46.8 °F - 41.5 °F 82% 30.18 in - South 29.9 mph - N/A   Unknown